This is the latest recevied weather packets stored in our database for station/object WS4FSC-7. If no packets are shown the sender has not sent any weather packets the latest 10 day(s).
| Time | Temp. | Humidity | Pressure | Rain* | Wind** | Luminosity | Snow |
|---|---|---|---|---|---|---|---|
| 1787952590 | 31.67° C | 70% | 1015 hPa | - | - | 66 W/m² | - |
| 1787951331 | 32.78° C | 65% | 1015 hPa | - | - | 89 W/m² | - |
| 1787950611 | 32.78° C | 65% | 1015 hPa | - | - | 373 W/m² | - |
| 1787950430 | 32.22° C | 65% | 1015 hPa | - | - | 383 W/m² | - |
| 1787950070 | 32.22° C | 64% | 1015 hPa | - | - | 415 W/m² | - |
| 1787949890 | 32.22° C | 61% | 1015 hPa | - | - | 435 W/m² | - |
| 1787949711 | 32.22° C | 62% | 1015 hPa | - | - | 475 W/m² | - |
| 1787949350 | 31.11° C | 62% | 1015 hPa | - | - | 578 W/m² | - |
| 1787949170 | 30.56° C | 64% | 1015 hPa | - | - | 546 W/m² | - |
| 1787948992 | 30.56° C | 65% | 1015 hPa | - | - | 230 W/m² | - |
| 1787948811 | 31.11° C | 65% | 1015 hPa | - | - | 168 W/m² | - |
| 1787948091 | 31.11° C | 68% | 1015 hPa | - | - | 131 W/m² | - |
| 1787947912 | 31.11° C | 69% | 1015 hPa | - | - | 65 W/m² | - |
| 1787947371 | 31.67° C | 68% | 1015 hPa | - | - | 68 W/m² | - |
| 1787946830 | 31.67° C | 70% | 1015 hPa | - | - | 88 W/m² | - |
| 1787946471 | 31.67° C | 70% | 1015 hPa | - | - | 166 W/m² | - |
| 1787946110 | 32.22° C | 67% | 1015 hPa | - | - | 153 W/m² | - |
| 1787945571 | 32.78° C | 67% | 1015 hPa | - | - | 737 W/m² | - |
| 1787945391 | 32.78° C | 67% | 1015 hPa | - | - | 738 W/m² | - |
| 1787945211 | 32.78° C | 67% | 1015 hPa | - | - | 741 W/m² | - |
| 1787945031 | 33.33° C | 67% | 1015 hPa | - | - | 747 W/m² | - |
| 1787944671 | 32.78° C | 67% | 1015 hPa | - | - | 763 W/m² | - |
| 1787944311 | 32.78° C | 67% | 1015 hPa | - | - | 780 W/m² | - |
| 1787943951 | 33.33° C | 65% | 1015 hPa | - | - | 790 W/m² | - |
| 1787943771 | 33.33° C | 67% | 1015 hPa | - | - | 795 W/m² | - |
* Rain since midnight (hover to see other rain measurements)
** Current wind speed in m/s (hover to see current wind gust speed)